Location: Newark
(12.4436°N, 0.6167°W)
Time: 22:36:19
(UTC+00:00)

Vanguard 1 - Pass Details

Date: 15 December 2019
Orbit: 651 x 3832 km, 34.2° (Epoch: 18 January)

Event Time Altitude Azimuth Distance (km) Brightness Sun altitude
Rises 07:06:50 0° 299° (WNW) 7,964 14.0 10.5°
Reaches altitude 10° 07:13:22 10° 306° (NW) 6,812 13.8 11.9°
Maximum altitude 07:32:52 40° 11° (N) 3,745 13.0 16.1°
Drops below altitude 10° 07:45:03 10° 77° (ENE) 4,403 14.2 18.7°
Sets 07:48:09 0° 85° (E) 5,028 14.6 19.4°
